Fremont, MI

11:05 PM EST on November 19, 2019 (GMT -0500)
Fremont

Weather History for KFFX - September, 2019

Change the Weather History Date:

Sunday, September 29, 2019

  Actual Average (KMKG) Record (KMKG)
Temperature  
Mean Temperature 54 °F -  
Max Temperature 57 °F 65 °F 92 °F (1953)
Min Temperature 50 °F 46 °F 31 °F (1991)
Degree Days  
Heating Degree Days 12    
Growing Degree Days 4 (Base 50)    
Moisture  
Dew Point 50 °F    
Average Humidity 88    
Maximum Humidity 97    
Minimum Humidity 68    
Precipitation  
Precipitation 0.00 in - - ()
Sea Level Pressure  
Sea Level Pressure 30.26 in    
Wind  
Wind Speed 7 mph ()    
Max Wind Speed 13 mph    
Max Gust Speed 21 mph    
Visibility 8.7 miles    
Events Rain    
Averages and records for this station are not official NWS values.
T = Trace of Precipitation, MM = Missing Value Source: Averaged Metar Reports

Daily Weather History Graph

Daily Weather History Graph

Search for Another Location

Airport or City:

Astronomy

Sep. 29, 2019 Rise Set
Actual Time 7:38 AM EDT 7:28 PM EDT
Civil Twilight 7:10 AM EDT 7:57 PM EDT
Nautical Twilight 6:37 AM EDT 8:30 PM EDT
Astronomical Twilight 6:03 AM EDT 9:04 PM EDT
Moon 8:28 AM EDT (9/29) 8:27 PM EDT (9/29)
Length of Visible Light 12h 47m
Length of Day
11h 50m
New Moon, 1% of the Moon is Illuminated
Sep 29
New Moon
Oct 5
First Quarter
Oct 13
Full
Oct 21
Last Quarter
Oct 27
New

Hourly Weather History & Observations

Time (EDT) Temp. Dew Point Humidity Pressure Visibility Wind Dir Wind Speed Gust Speed Precip Events Conditions
12:15 AM 53.2 °F 42.8 °F 68% 30.30 in 10.0 mi ENE 5.8 mph - N/A   Clear
12:16 AM 53.2 °F 42.8 °F 68% 30.30 in 10.0 mi ENE 4.6 mph - N/A   Clear
12:35 AM 52.7 °F 43.0 °F 70% 30.29 in 10.0 mi NE 5.8 mph - N/A   Clear
12:57 AM 52.7 °F 43.2 °F 70% 30.29 in 10.0 mi ENE 4.6 mph - N/A   Clear
1:16 AM 51.8 °F 46.6 °F 82% 30.29 in 10.0 mi ENE 4.6 mph - N/A   Clear
1:35 AM 51.6 °F 47.3 °F 85% 30.29 in 7.0 mi ENE 5.8 mph - N/A   Clear
1:55 AM 51.8 °F 47.7 °F 86% 30.29 in 10.0 mi ENE 9.2 mph - N/A   Clear
1:56 AM 51.8 °F 47.7 °F 86% 30.29 in 10.0 mi ENE 8.1 mph - N/A   Clear
2:19 AM 52.2 °F 48.2 °F 86% 30.29 in 10.0 mi East 9.2 mph - N/A   Clear
2:37 AM 52.0 °F 48.2 °F 87% 30.29 in 10.0 mi East 10.4 mph - N/A   Clear
2:55 AM 52.2 °F 48.4 °F 87% 30.28 in 10.0 mi East 12.7 mph - N/A   Clear
3:15 AM 52.2 °F 48.2 °F 86% 30.28 in 10.0 mi East 11.5 mph - N/A   Clear
3:35 AM 52.3 °F 48.4 °F 86% 30.28 in 10.0 mi East 9.2 mph - N/A   Clear
3:58 AM 52.7 °F 47.8 °F 84% 30.26 in 10.0 mi ENE 12.7 mph 19.6 mph N/A   Mostly Cloudy
4:16 AM 52.5 °F 45.9 °F 78% 30.28 in 10.0 mi East 9.2 mph 16.1 mph N/A   Scattered Clouds
4:35 AM 52.2 °F 45.0 °F 76% 30.30 in 10.0 mi ESE 4.6 mph - N/A   Clear
4:36 AM 52.0 °F 45.0 °F 77% 30.30 in 10.0 mi SE 4.6 mph - N/A   Clear
4:55 AM 50.9 °F 46.4 °F 85% 30.29 in 10.0 mi East 5.8 mph - N/A   Scattered Clouds
5:19 AM 51.3 °F 45.5 °F 81% 30.29 in 10.0 mi East 5.8 mph - N/A   Mostly Cloudy
5:37 AM 51.4 °F 42.8 °F 72% 30.29 in 10.0 mi East 8.1 mph - N/A   Scattered Clouds
5:55 AM 51.4 °F 43.0 °F 73% 30.30 in 10.0 mi East 4.6 mph - N/A   Clear
5:56 AM 51.4 °F 42.8 °F 72% 30.30 in 10.0 mi East 4.6 mph - N/A   Clear
6:15 AM 51.3 °F 43.3 °F 74% 30.30 in 10.0 mi East 9.2 mph - N/A   Clear
6:16 AM 51.3 °F 43.2 °F 74% 30.30 in 10.0 mi ENE 9.2 mph - N/A   Clear
6:35 AM 50.9 °F 43.9 °F 77% 30.29 in 10.0 mi ENE 11.5 mph - N/A   Clear
6:40 AM 50.9 °F 43.0 °F 74% 30.30 in 10.0 mi East 9.2 mph - N/A   Scattered Clouds
6:58 AM 50.9 °F 44.2 °F 78% 30.30 in 10.0 mi East 9.2 mph - N/A   Mostly Cloudy
7:16 AM 51.4 °F 43.9 °F 75% 30.31 in 10.0 mi East 9.2 mph - N/A   Overcast
7:35 AM 51.8 °F 44.2 °F 75% 30.32 in 10.0 mi ENE 4.6 mph - N/A   Overcast
7:36 AM 51.8 °F 44.4 °F 76% 30.32 in 10.0 mi ENE 5.8 mph - N/A   Overcast
7:55 AM 51.4 °F 43.7 °F 75% 30.34 in 10.0 mi North 3.5 mph - N/A   Overcast
7:56 AM 51.4 °F 43.7 °F 75% 30.34 in 10.0 mi North 4.6 mph - N/A   Overcast
8:19 AM 50.9 °F 45.0 °F 80% 30.34 in 10.0 mi NNE 5.8 mph - N/A Rain Rain
8:37 AM 50.2 °F 46.6 °F 87% 30.34 in 10.0 mi NNE 5.8 mph - N/A Rain Rain
8:55 AM 50.0 °F 47.7 °F 92% 30.34 in 5.0 mi ENE 5.8 mph - N/A Rain Rain
9:15 AM 50.4 °F 48.2 °F 92% 30.34 in 7.0 mi East 9.2 mph - N/A Rain Rain
9:35 AM 50.5 °F 48.6 °F 93% 30.34 in 10.0 mi East 10.4 mph - N/A Rain Rain
9:40 AM 50.4 °F 48.6 °F 94% 30.33 in 10.0 mi East 11.5 mph - N/A Rain Rain
9:58 AM 50.9 °F 49.5 °F 95% 30.33 in 10.0 mi East 6.9 mph - N/A Rain Light Rain
10:16 AM 51.8 °F 50.2 °F 94% 30.33 in 10.0 mi East 9.2 mph - N/A Rain Light Rain
10:35 AM 52.7 °F 51.1 °F 94% 30.32 in 7.0 mi East 11.5 mph 17.3 mph N/A Rain Rain
10:36 AM 52.7 °F 51.3 °F 95% 30.32 in 7.0 mi East 10.4 mph 17.3 mph N/A Rain Light Rain
10:55 AM 53.2 °F 51.8 °F 95% 30.31 in 10.0 mi East 8.1 mph 18.4 mph N/A Rain Rain
10:56 AM 53.2 °F 51.8 °F 95% 30.31 in 10.0 mi East 9.2 mph 18.4 mph N/A Rain Rain
11:19 AM 53.8 °F 52.2 °F 94% 30.30 in 10.0 mi East 10.4 mph 16.1 mph N/A Rain Light Rain
11:36 AM 54.0 °F 52.5 °F 95% 30.30 in 10.0 mi East 9.2 mph - N/A Rain Light Rain
11:55 AM 54.5 °F 53.1 °F 95% 30.29 in 10.0 mi East 9.2 mph - N/A Rain Light Rain
11:56 AM 54.7 °F 53.1 °F 94% 30.29 in 10.0 mi East 8.1 mph - N/A Rain Light Rain
12:15 PM 55.2 °F 53.6 °F 94% 30.28 in 10.0 mi East 9.2 mph - N/A Rain Light Rain
12:35 PM 55.4 °F 53.8 °F 94% 30.28 in 5.0 mi ESE 8.1 mph 18.4 mph N/A Rain Light Rain
12:58 PM 55.6 °F 54.0 °F 94% 30.28 in 3.0 mi East 12.7 mph 17.3 mph N/A Rain Light Rain
1:16 PM 55.6 °F 54.0 °F 94% 30.26 in 4.0 mi East 12.7 mph 17.3 mph N/A Rain Light Rain
1:35 PM 55.4 °F 53.6 °F 94% 30.27 in 10.0 mi East 10.4 mph 16.1 mph N/A Rain Light Rain
1:55 PM 55.6 °F 53.6 °F 93% 30.26 in 10.0 mi East 10.4 mph 16.1 mph N/A   Overcast
1:56 PM 55.8 °F 53.6 °F 92% 30.26 in 10.0 mi East 11.5 mph 16.1 mph N/A   Overcast
2:18 PM 56.3 °F 54.0 °F 92% 30.25 in 10.0 mi East 11.5 mph 17.3 mph N/A   Overcast
2:37 PM 56.3 °F 54.0 °F 92% 30.24 in 10.0 mi East 12.7 mph 20.7 mph N/A   Overcast
2:55 PM 56.7 °F 54.0 °F 91% 30.24 in 10.0 mi ESE 11.5 mph 19.6 mph N/A   Overcast
3:15 PM 56.7 °F 54.0 °F 91% 30.24 in 10.0 mi ESE 5.8 mph 18.4 mph N/A   Overcast
3:35 PM 56.3 °F 54.1 °F 92% 30.24 in 4.0 mi East 8.1 mph 17.3 mph N/A   Drizzle
3:58 PM 55.8 °F 54.1 °F 94% 30.23 in 3.0 mi East 10.4 mph - N/A Rain Rain
4:16 PM 55.6 °F 54.0 °F 94% 30.23 in 2.5 mi East 10.4 mph 17.3 mph N/A Rain Light Rain
4:35 PM 55.4 °F 53.6 °F 94% 30.22 in 4.0 mi ESE 9.2 mph 17.3 mph N/A Rain Light Rain
4:55 PM 55.4 °F 53.8 °F 94% 30.22 in 5.0 mi East 8.1 mph - N/A   Overcast
5:19 PM 55.4 °F 54.0 °F 95% 30.21 in 5.0 mi East 9.2 mph - N/A   Overcast
5:37 PM 55.4 °F 53.8 °F 94% 30.21 in 10.0 mi East 8.1 mph - N/A   Overcast
5:55 PM 55.4 °F 54.0 °F 95% 30.21 in 2.5 mi East 8.1 mph 16.1 mph N/A   Overcast
5:56 PM 55.4 °F 54.0 °F 95% 30.21 in 2.5 mi East 10.4 mph 16.1 mph N/A   Overcast
6:16 PM 55.4 °F 54.0 °F 95% 30.21 in 2.0 mi East 4.6 mph - N/A Rain Light Rain
6:35 PM 55.4 °F 54.3 °F 96% 30.21 in 7.0 mi East 6.9 mph - N/A   Overcast
6:58 PM 55.6 °F 54.3 °F 96% 30.21 in 7.0 mi ESE 6.9 mph - N/A   Overcast
7:16 PM 55.6 °F 54.5 °F 96% 30.21 in 10.0 mi ESE 9.2 mph - N/A   Overcast
7:35 PM 55.8 °F 54.5 °F 96% 30.20 in 10.0 mi ESE 6.9 mph - N/A   Overcast
7:55 PM 55.8 °F 54.7 °F 96% 30.20 in 7.0 mi East 5.8 mph - N/A   Overcast
8:19 PM 56.3 °F 55.0 °F 96% 30.19 in 10.0 mi East 6.9 mph - N/A   Overcast
8:37 PM 56.3 °F 55.0 °F 96% 30.19 in 10.0 mi ESE 8.1 mph - N/A   Overcast
8:55 PM 56.5 °F 55.2 °F 96% 30.19 in 10.0 mi East 6.9 mph - N/A   Overcast
8:56 PM 56.5 °F 55.4 °F 96% 30.19 in 10.0 mi East 6.9 mph - N/A   Overcast
9:15 PM 56.5 °F 55.4 °F 96% 30.19 in 10.0 mi ESE 8.1 mph - N/A   Overcast
9:35 PM 56.8 °F 55.4 °F 95% 30.20 in 10.0 mi ESE 6.9 mph - N/A   Overcast
9:58 PM 57.2 °F 55.6 °F 94% 30.19 in 10.0 mi East 6.9 mph - N/A   Overcast
10:16 PM 57.2 °F 55.6 °F 94% 30.19 in 10.0 mi East 9.2 mph - N/A   Overcast
10:35 PM 57.2 °F 55.9 °F 96% 30.19 in 10.0 mi ESE 8.1 mph - N/A   Overcast
10:36 PM 57.2 °F 55.9 °F 96% 30.19 in 10.0 mi ESE 6.9 mph - N/A   Overcast
10:55 PM 57.2 °F 55.9 °F 96% 30.19 in 10.0 mi ESE 6.9 mph - N/A   Overcast
10:56 PM 57.2 °F 55.9 °F 96% 30.19 in 10.0 mi ESE 6.9 mph - N/A   Overcast
11:19 PM 57.2 °F 55.9 °F 96% 30.19 in 10.0 mi ESE 5.8 mph - N/A   Overcast
11:37 PM 57.2 °F 56.1 °F 96% 30.19 in 5.0 mi East 6.9 mph - N/A   Overcast
11:55 PM 57.2 °F 56.3 °F 97% 30.19 in 4.0 mi East 8.1 mph - N/A   Overcast